Regional Weather Roundup
Issued by NWS

Home | Current Version | Previous Version | Graphics & Text | Print | Product List | Glossary On
Versions: 1 2 3 4 5 6 7 8 9 10 11 12 13 14 15 16 17 18 19 20 21 22 23 24 25 26 27 28 29 30 31 32 33 34 35 36 37 38 39 40 41 42 43 44 45 46 47 48 49 50
000
ASUS43 KMPX 270201
RWRMN
WEATHER ROUNDUP FOR MINNESOTA
NATIONAL WEATHER SERVICE TWIN CITIES/CHANHASSEN MN
800 PM CST FRI DEC 26 2014


NOTE: "FAIR" INDICATES FEW OR NO CLOUDS BELOW 12,000 FEET WITH NO
SIGNIFICANT WEATHER AND/OR OBSTRUCTIONS TO VISIBILITY. N/A MEANS
CURRENT SKY AND/OR WEATHER CONDITIONS ARE NOT AVAILABLE.

MNZ060>063-068>070-270300-
   Twin Cities Metro

CITY           SKY/WX    TMP DP  RH WIND       PRES   REMARKS
TWIN CITIES    LGT SNOW  29  26  89 N10       30.08F FOG     WCI  20
ST PAUL        LGT SNOW  29  27  92 N7        30.10F FOG     WCI  22
CRYSTAL        LGT SNOW  30  26  85 N7        30.09R FOG     WCI  23
LAKEVILLE      FLURRIES  28  27  93 N7        30.06F WCI  21
EDEN PRAIRIE   LGT SNOW  29  26  89 N8        30.07F VSB 1   WCI  21
SOUTH ST PAUL  LGT SNOW  30  28  93 N7        30.08F WCI  23
LAKE ELMO      LGT SNOW  30  30 100 N6        30.09S WCI  24
$$
MNZ001>005-007-008-013>017-022>024-027-028-270300-
   Northwest Minnesota

CITY           SKY/WX    TMP DP  RH WIND       PRES   REMARKS
BEMIDJI        CLOUDY    20  15  79 N7        30.13S WCI  11
HALLOCK        CLOUDY     9   7  92 NW10      30.23F WCI  -6
ROSEAU         FLURRIES  16   9  73 NW8       30.19S WCI   5
WARROAD        FLURRIES  16   9  73 NW7       30.18S WCI   6
THIEF RVR FALL CLOUDY    12   9  85 NW9       30.20S WCI   0
CROOKSTON      FLURRIES  10   7  85 NW12      30.24S WCI  -4
FOSSTON        FLURRIES  14  10  85 NW8       30.18S WCI   3
DETROIT LAKES  CLOUDY    19  18  93 NW10      30.17R WCI   8
MOORHEAD       CLOUDY    16  16 100 N13       30.24R WCI   2
PARK RAPIDS    CLOUDY    23  15  71 N8        30.13R WCI  14
MAHNOMEN       FLURRIES  18  13  80 NW8       30.17S WCI   7
$$
MNZ006-009>011-018-025>026-270300-
   North Central Minnesota

CITY           SKY/WX    TMP DP  RH WIND       PRES   REMARKS
BAUDETTE       CLOUDY    16  10  77 N10       30.15S WCI   4
FLAG ISLAND    FLURRIES  12   7  79 NW8       30.18S WCI   1
INTL FALLS     CLOUDY    18  11  74 NW6       30.14R WCI  10
WASKISH        FLURRIES  19  16  86 CALM      30.15R
BIG FORK       FLURRIES  21  14  73 N3        30.13S
LONGVILLE      CLOUDY    21  16  79 N3        30.14R
GRAND RAPIDS   CLOUDY    21  16  79 N12       30.11R WCI   9
CRANE LAKE     CLOUDY    19  16  86 NW7       30.15R WCI  10
ORR            CLOUDY    19  14  79 CALM      30.10R
COOK           CLOUDY    21  18  86 NW3       30.11S
WALKER         CLOUDY    21  14  75 N5        30.13S WCI  15
$$
MNZ012-019>021-037-270300-
   Northeast Minnesota

CITY           SKY/WX    TMP DP  RH WIND       PRES   REMARKS
DULUTH         CLOUDY    27  19  72 N6        30.08R WCI  20
ELY            CLOUDY    23  18  80 CALM      30.08R
HIBBING        CLOUDY    23  16  74 NW7       30.10R WCI  15
EVELETH        MIX PCPN  25  19  80 NW7       30.11S WCI  17
DULUTH HARBOR  CLOUDY    30  25  80 NW10      30.12R WCI  21
TWO HARBORS    CLOUDY    30  25  80 N5        30.08R WCI  25
GRAND MARAIS     N/A     30  19  63 VRB6      30.09S WCI  24
G MARAIS ARPRT CLOUDY    21  18  86 NW5       30.03F WCI  15
$$
MNZ029>031-032-039>041-046>048-054>057-064-270300-
   West Central Minnesota

CITY           SKY/WX    TMP DP  RH WIND       PRES   REMARKS
FERGUS FALLS   CLOUDY    19  14  79 N15       30.21R WCI   5
WHEATON        CLOUDY    19  16  86 N13       30.21S WCI   7
MORRIS         CLOUDY    25  19  80 N13       30.14S WCI  13
ALEXANDRIA     CLOUDY    24  19  81 N10       30.13S WCI  14
ELBOW LAKE     CLOUDY    22  17  82 N12       30.16R WCI  10
WADENA         CLOUDY    21  18  86 N6        30.13S WCI  14
GLENWOOD       CLOUDY    25  19  80 N13       30.12S WCI  13
APPLETON       CLOUDY    27  21  80 N16       30.14F WCI  14
BENSON         CLOUDY    25  19  80 N12       30.13S WCI  14
ORTONVILLE     CLOUDY    21  18  86 N14       30.16S WCI   8
MADISON        CLOUDY    27  21  80 N14       30.15S WCI  15
WILLMAR        CLOUDY    27  21  80 N9        30.12S WCI  17
$$
MNZ033>034-036-042>043-049>051-058-059-270300-
   Central Minnesota

CITY           SKY/WX    TMP DP  RH WIND       PRES   REMARKS
ST CLOUD       CLOUDY    30  20  66 N6        30.11R WCI  24
SAUK CENTRE    CLOUDY    25  19  79 N6        30.11S WCI  18
PAYNESVILLE    CLOUDY    24  20  87 NW7       30.10F WCI  15
AITKIN         CLOUDY    27  18  69 N8        30.11R WCI  18
PINE RIVER     CLOUDY    21  16  79 N7        30.16S WCI  13
BRAINERD       CLOUDY    23  16  74 N7        30.13R WCI  15
STAPLES        CLOUDY    21  16  79 N6        30.13S WCI  14
LONG PRAIRIE   CLOUDY    23  19  86 NW9       30.11S WCI  13
LITTLE FALLS   CLOUDY    27  18  69 N6        30.12S WCI  20
LITCHFIELD     CLOUDY    28  25  86 N5        30.10S WCI  23
BUFFALO        LGT SNOW  27  24  89 N8        30.11S WCI  19
MAPLE LAKE     FLURRIES  29  25  84 N9        30.10F WCI  20
$$
MNZ037-044-045-052-053-270300-
   East Central Minnesota

CITY           SKY/WX    TMP DP  RH WIND       PRES   REMARKS
PRINCETON      CLOUDY    28  23  80 N9        30.10S WCI  20
MORA           CLOUDY    28  21  74 N7        30.12R WCI  21
CAMBRIDGE      CLOUDY    30  21  69 N5        30.09R WCI  25
RUSH CITY      CLOUDY    29  24  79 N6        30.10R WCI  23
MOOSE LAKE     CLOUDY    28  19  69 N6        30.09R WCI  22
HINCKLEY       CLOUDY    30  23  74 CALM      30.10R
CLOQUET        CLOUDY    27  19  74 N5        30.09R WCI  21
MCGREGOR       CLOUDY    27  19  74 N7        30.11R WCI  19
$$
MNZ071>073-080-081-089-090-097-098-270300-
   Southwest Minnesota

CITY           SKY/WX    TMP DP  RH WIND       PRES   REMARKS
MONTEVIDEO     CLOUDY    25  21  86 NE9       30.14S WCI  15
GRANITE FALLS  CLOUDY    26  23  89 N12       30.14R WCI  15
CANBY          CLOUDY    24  20  87 N12       30.15R WCI  13
MARSHALL       CLOUDY    25  19  80 N16       30.11S WCI  12
REDWOOD FALLS  LGT SNOW  26  24  92 N6        30.10S FOG     WCI  19
OLIVIA         LGT SNOW  27  23  86 N9        30.10S WCI  17
PIPESTONE      LGT SNOW  23  21  93 N9        30.07S WCI  13
WINDOM         FLURRIES  27  25  93 N15       30.05S WCI  15
WORTHINGTON    CLOUDY    25 -22  12 N15G24    30.05S WCI  12
JACKSON        CLOUDY    28  27  93 VRB13     30.04S WCI  18
TRACY          LGT SNOW  25  24  96 N13       30.10S WCI  14
SLAYTON        LGT SNOW  23  22  94 N15       30.06F WCI  10
$$
MNZ065>067-074>077-082>085-091>093-270300-
   South Central Minnesota

CITY           SKY/WX    TMP DP  RH WIND       PRES   REMARKS
MANKATO        CLOUDY    28  25  86 N10       30.06R WCI  19
NEW ULM        LGT SNOW  27  27 100 N7        30.07F WCI  19
ST JAMES       FLURRIES  28  27  93 N12       30.07S WCI  18
FAIRMONT       CLOUDY    28  25  86 N15G21    30.03S WCI  17
GLENCOE        LGT SNOW  29  28  96 N8        30.08F WCI  21
FARIBAULT      CLOUDY    30  28  93 N8        30.05S WCI  23
OWATONNA       CLOUDY    30  27  86 N10       30.03S WCI  21
ALBERT LEA     CLOUDY    30  30 100 N10       30.01S FOG     WCI  21
$$
MNZ078>079-086>088-094>096-270300-
   Southeast Minnesota

CITY           SKY/WX    TMP DP  RH WIND       PRES   REMARKS
ROCHESTER      CLOUDY    32  29  88 NE14      30.00F WCI  22
RED WING       LGT SNOW  32  28  86 N5        30.05F WCI  27
STANTON        FLURRIES  32  28  87 N10       30.04S WCI  23
DODGE CENTER   CLOUDY    30  30 100 N9        30.01S WCI  22
WINONA         CLOUDY    36  32  87 NW7       30.03S
AUSTIN         CLOUDY    30  30 100 N7        30.01R WCI  23
PRESTON        LGT SNOW  31  31  96 N6        29.99F WCI  26
$$
ABBREVIATIONS USED IN REMARKS
   TC - TEMPERATURES IN CELSIUS
  WCI - WIND CHILL INDEX
   HX - HEAT INDEX
  VSB - VISIBILITY
$$


USA.gov is the U.S. government's official web portal to all federal, state and local government web resources and services.